Location: Sangrey
(48.2845°N, 109.8206°W)
Time: 05:41:54
(UTC+00:00)

Envisat - Visible Passes

Search period start: 30 September 2023 00:00
Search period end: 10 October 2023 00:00
Orbit: 763 x 764 km, 98.2° (Epoch: 29 September)

Date Brightness Start Highest point End Pass type
(mag) Time Alt. Az. Time Alt. Az. Time Alt. Az.
30 Sep 5.6 09:43:08 10° NE 09:46:08 16° E 09:49:08 10° SE visible
30 Sep 2.9 11:20:38 10° NNE 11:25:43 78° WNW 11:29:20 20° SSW visible
01 Oct 3.7 10:43:30 10° NNE 10:48:29 52° E 10:51:34 22° SSE visible
01 Oct 4.1 12:23:04 10° N 12:27:10 25° WNW 12:31:15 10° WSW visible
02 Oct 4.9 10:06:50 10° NE 10:11:00 25° E 10:13:48 16° SE visible
02 Oct 3.2 11:45:21 10° N 11:50:15 48° WNW 11:53:58 17° SW visible
03 Oct 5.7 09:31:24 10° ENE 09:33:20 12° E 09:35:16 10° ESE visible
03 Oct 3.0 11:08:00 10° NNE 11:13:07 84° ESE 11:16:11 25° SSW visible
03 Oct 4.5 12:48:18 10° NNW 12:51:27 17° WNW 12:54:36 10° W visible
04 Oct 4.1 10:31:00 10° NNE 10:35:47 40° E 10:38:25 23° SSE visible
04 Oct 3.8 12:10:14 10° N 12:14:40 31° WNW 12:18:35 12° WSW visible
05 Oct 5.2 09:54:34 10° NE 09:58:17 20° E 10:00:39 15° SE visible
05 Oct 3.0 11:32:39 10° N 11:37:40 61° WNW 11:40:48 23° SW visible
06 Oct 3.3 10:55:24 10° NNE 11:00:29 66° ESE 11:03:02 29° S visible
06 Oct 4.3 12:35:18 10° NNW 12:38:59 21° WNW 12:42:40 10° WSW visible
07 Oct 4.5 10:18:32 10° NNE 10:23:05 32° E 10:25:15 23° SE visible
07 Oct 3.5 11:57:26 10° N 12:02:08 38° WNW 12:05:25 18° SW visible
08 Oct 5.5 09:42:27 10° NE 09:45:29 16° E 09:47:28 13° ESE visible
08 Oct 2.9 11:19:58 10° NNE 11:25:04 78° WNW 11:27:38 30° SSW visible
09 Oct 3.7 10:42:50 10° NNE 10:47:49 52° E 10:49:51 32° SSE visible
09 Oct 4.1 12:22:24 10° N 12:26:30 25° WNW 12:30:00 13° WSW visible
